Needles, CA

3:37 PM PST on February 09, 2016 (GMT -0800)
Needles

Weather History for KEED - March, 2013

Change the Weather History Date:

Tuesday, March 12, 2013

  Actual Average Record
Temperature  
Mean Temperature 69 °F -  
Max Temperature 86 °F 74 °F 93 °F (1989)
Min Temperature 52 °F 48 °F 36 °F (1956)
Cooling Degree Days 4    
Growing Degree Days 19 (Base 50)    
Moisture  
Dew Point 29 °F    
Average Humidity 24    
Maximum Humidity 41    
Minimum Humidity 13    
Precipitation  
Precipitation 0.00 in - - ()
Sea Level Pressure  
Sea Level Pressure 30.01 in    
Wind  
Wind Speed 6 mph (North)    
Max Wind Speed 17 mph    
Max Gust Speed -    
Visibility 10 miles    
Events      
Averages and records for this station are not official NWS values.
T = Trace of Precipitation, MM = Missing Value Source: NWS Daily Summary

Daily Weather History Graph

Daily Weather History Graph

Search for Another Location

Airport or City:

Trip Planner

Search our weather history database for the weather conditions in past years. The results will help you decide how hot, cold, wet, or windy it might be!

Date:

Astronomy

Mar. 12, 2013 Rise Set
Actual Time 6:52 AM PDT 6:43 PM PDT
Civil Twilight 6:27 AM PDT 7:09 PM PDT
Nautical Twilight 5:58 AM PDT 7:38 PM PDT
Astronomical Twilight 5:28 AM PDT 8:07 PM PDT
Moon 7:05 AM PDT (3/12) 7:58 PM PDT (3/12)
Length of Visible Light 12h 41m
Length of Day
11h 51m
New Moon, 1% of the Moon is Illuminated
Mar 12
New Moon
Mar 19
First Quarter
Mar 27
Full
Apr 2
Last Quarter
Apr 10
New

Hourly Weather History & Observations

Time (PDT) Temp. Dew Point Humidity Pressure Visibility Wind Dir Wind Speed Gust Speed Precip Events Conditions
12:56 AM 59.0 °F 26.1 °F 28% 29.99 in 10.0 mi WSW 8.1 mph - N/A   Clear
1:56 AM 57.0 °F 27.0 °F 32% 30.00 in 10.0 mi Calm Calm - N/A   Clear
2:56 AM 55.9 °F 28.0 °F 34% 29.99 in 10.0 mi WSW 3.5 mph - N/A   Clear
3:56 AM 54.0 °F 28.0 °F 37% 29.99 in 10.0 mi SW 3.5 mph - N/A   Clear
5:56 AM 53.1 °F 28.0 °F 38% 30.01 in 10.0 mi Calm Calm - N/A   Clear
6:56 AM 52.0 °F 28.9 °F 41% 30.04 in 10.0 mi Calm Calm - N/A   Clear
7:56 AM 60.1 °F 30.0 °F 32% 30.06 in 10.0 mi North 4.6 mph - N/A   Clear
8:56 AM 66.0 °F 28.9 °F 25% 30.06 in 10.0 mi North 5.8 mph - N/A   Clear
9:56 AM 70.0 °F 30.0 °F 23% 30.06 in 10.0 mi North 11.5 mph - N/A   Clear
10:56 AM 73.9 °F 30.9 °F 21% 30.07 in 10.0 mi NNE 10.4 mph - N/A   Clear
11:56 AM 78.1 °F 30.9 °F 18% 30.04 in 10.0 mi NNE 11.5 mph - N/A   Clear
12:56 PM 82.0 °F 28.9 °F 14% 30.02 in 10.0 mi NNE 17.3 mph - N/A   Clear
1:56 PM 82.9 °F 30.0 °F 15% 29.98 in 10.0 mi NNE 11.5 mph - N/A   Clear
2:56 PM 84.9 °F 30.0 °F 14% 29.97 in 10.0 mi ENE 8.1 mph - N/A   Clear
3:56 PM 86.0 °F 28.9 °F 13% 29.95 in 10.0 mi NE 11.5 mph - N/A   Clear
4:56 PM 84.9 °F 30.0 °F 14% 29.95 in 10.0 mi NNE 12.7 mph - N/A   Clear
5:56 PM 82.9 °F 30.0 °F 15% 29.95 in 10.0 mi NE 8.1 mph - N/A   Clear
6:56 PM 78.1 °F 30.0 °F 17% 29.96 in 10.0 mi Calm Calm - N/A   Clear
7:56 PM 73.0 °F 30.9 °F 21% 29.98 in 10.0 mi NW 8.1 mph - N/A   Clear
8:56 PM 72.0 °F 30.0 °F 21% 30.00 in 10.0 mi NNW 6.9 mph - N/A   Clear
9:56 PM 71.1 °F 30.0 °F 22% 30.02 in 10.0 mi NW 4.6 mph - N/A   Clear
10:56 PM 66.0 °F 30.0 °F 26% 30.03 in 10.0 mi WNW 8.1 mph - N/A   Clear
11:56 PM 66.9 °F 28.9 °F 24% 30.03 in 10.0 mi West 8.1 mph - N/A   Clear